Terminal Aerodrome Forecast
Issued by NWS Greer, SC

Home | Current Version | Previous Version | Text Only | Print | Product List | Glossary On
Versions: 1 2 3 4 5 6 7 8 9 10 11 12 13 14 15 16 17 18 19 20 21 22 23 24 25 26 27 28
000
FTUS42 KGSP 301130
TAFAVL
TAF
KAVL 301130Z 3012/3112 00000KT P6SM OVC250
     FM301500 16006KT P6SM OVC050
     FM310000 18003KT P6SM VCSH OVC060
     FM310500 00000KT P6SM BKN025
     FM310800 00000KT 3SM BR BKN025=

USA.gov is the U.S. government's official web portal to all federal, state and local government web resources and services.